• In India
  • List of Countries
  • For 7 days
  • Water Temperature
  • Satellite Maps
  • Weather Map
  • Weather Widgets
  • user-avatar
    Login

    Hourly Weather Melbourne

    Today, 25 November, Saturday

    Time Temperature Precipitation Wind Pressure Humidity
    00:00 +21°C° 0 mm 1 mps 758 mmHg 70%
    01:00 +21°C° 0 mm 1 mps 758 mmHg 70%
    02:00 +21°C° 0 mm 1 mps 758 mmHg 70%
    03:00 +21°C° 0 mm 1 mps 758 mmHg 70%
    04:00 +19°C° 0 mm 2 mps 758 mmHg 70%
    05:00 +20°C° 0 mm 2 mps 758 mmHg 69%
    06:00 +22°C° 0 mm 1 mps 759 mmHg 67%
    07:00 +23°C° 0 mm 1 mps 759 mmHg 66%
    08:00 +25°C° 0 mm 2 mps 759 mmHg 60%
    09:00 +27°C° 0 mm 2 mps 759 mmHg 54%
    10:00 +28°C° 0 mm 2 mps 759 mmHg 49%
    11:00 +30°C° 0.1 mm 2 mps 758 mmHg 44%
    12:00 +31°C° 0.1 mm 2 mps 758 mmHg 40%
    13:00 +34°C° 0.1 mm 2 mps 757 mmHg 35%
    14:00 +31°C° 0.3 mm 2 mps 757 mmHg 40%
    15:00 +30°C° 0.3 mm 2 mps 757 mmHg 44%
    16:00 +29°C° 0.3 mm 3 mps 756 mmHg 49%
    17:00 +27°C° 0.4 mm 3 mps 757 mmHg 58%
    18:00 +25°C° 0.4 mm 3 mps 757 mmHg 67%
    19:00 +24°C° 0.4 mm 3 mps 757 mmHg 76%
    20:00 +22°C° 0.2 mm 3 mps 757 mmHg 79%
    21:00 +21°C° 0.2 mm 2 mps 758 mmHg 83%
    22:00 +20°C° 0.2 mm 2 mps 758 mmHg 86%
    23:00 +20°C° 0.4 mm 2 mps 758 mmHg 88%

    Tomorrow, 26 November, Sunday

    Time Temperature Precipitation Wind Pressure Humidity
    00:00 +20°C° 0.4 mm 2 mps 757 mmHg 89%
    01:00 +20°C° 0.4 mm 1 mps 757 mmHg 91%
    02:00 +19°C° 0.5 mm 2 mps 757 mmHg 91%
    03:00 +19°C° 0.5 mm 2 mps 757 mmHg 91%
    04:00 +19°C° 0.5 mm 2 mps 756 mmHg 90%
    05:00 +19°C° 0.6 mm 2 mps 757 mmHg 90%
    06:00 +20°C° 0.6 mm 2 mps 757 mmHg 89%
    07:00 +21°C° 0.6 mm 2 mps 757 mmHg 88%
    08:00 +23°C° 0.2 mm 2 mps 758 mmHg 80%
    09:00 +25°C° 0.2 mm 3 mps 758 mmHg 72%
    10:00 +26°C° 0.2 mm 3 mps 758 mmHg 64%
    11:00 +28°C° 0.1 mm 3 mps 758 mmHg 59%
    12:00 +29°C° 0.1 mm 2 mps 757 mmHg 53%
    13:00 +31°C° 0.1 mm 2 mps 757 mmHg 48%
    14:00 +30°C° 0.3 mm 3 mps 757 mmHg 51%
    15:00 +29°C° 0.3 mm 3 mps 756 mmHg 55%
    16:00 +29°C° 0.3 mm 4 mps 756 mmHg 58%
    17:00 +26°C° 2.1 mm 4 mps 756 mmHg 70%
    18:00 +22°C° 2.1 mm 4 mps 757 mmHg 82%
    19:00 +19°C° 2.1 mm 4 mps 757 mmHg 94%
    20:00 +19°C° 1.4 mm 3 mps 758 mmHg 95%
    21:00 +19°C° 1.4 mm 3 mps 759 mmHg 96%
    22:00 +18°C° 1.4 mm 3 mps 760 mmHg 96%
    23:00 +18°C° 0.8 mm 3 mps 759 mmHg 97%

    Day after tomorrow, 27 November, Monday

    Time Temperature Precipitation Wind Pressure Humidity
    00:00 +18°C° 0.8 mm 2 mps 759 mmHg 97%
    01:00 +18°C° 0.8 mm 2 mps 758 mmHg 97%
    02:00 +17°C° 0.2 mm 2 mps 758 mmHg 97%
    03:00 +17°C° 0.2 mm 2 mps 758 mmHg 97%
    04:00 +17°C° 0.2 mm 2 mps 758 mmHg 97%
    05:00 +17°C° 0.1 mm 2 mps 759 mmHg 97%
    06:00 +17°C° 0.1 mm 2 mps 759 mmHg 97%
    07:00 +17°C° 0.1 mm 3 mps 760 mmHg 96%
    08:00 +17°C° 0.1 mm 3 mps 760 mmHg 96%
    09:00 +17°C° 0.1 mm 3 mps 760 mmHg 95%
    10:00 +18°C° 0.1 mm 3 mps 760 mmHg 94%
    11:00 +18°C° 0 mm 3 mps 760 mmHg 89%
    12:00 +19°C° 0 mm 3 mps 760 mmHg 84%
    13:00 +20°C° 0 mm 3 mps 759 mmHg 80%
    14:00 +21°C° 0 mm 3 mps 759 mmHg 75%
    15:00 +22°C° 0 mm 3 mps 759 mmHg 70%
    16:00 +23°C° 0 mm 4 mps 759 mmHg 66%
    17:00 +22°C° 0 mm 4 mps 759 mmHg 70%
    18:00 +21°C° 0 mm 3 mps 759 mmHg 75%
    19:00 +19°C° 0 mm 3 mps 760 mmHg 80%
    20:00 +18°C° 0 mm 3 mps 760 mmHg 85%
    21:00 +18°C° 0 mm 3 mps 761 mmHg 90%
    22:00 +17°C° 0 mm 2 mps 761 mmHg 95%
    23:00 +16°C° 0 mm 2 mps 761 mmHg 95%

    28 November, Tuesday

    Time Temperature Precipitation Wind Pressure Humidity
    00:00 +16°C° 0 mm 1 mps 761 mmHg 95%
    01:00 +16°C° 0 mm 1 mps 761 mmHg 95%
    02:00 +16°C° 0 mm 1 mps 760 mmHg 96%
    03:00 +16°C° 0 mm 1 mps 760 mmHg 96%
    04:00 +16°C° 0 mm 1 mps 760 mmHg 96%
    05:00 +18°C° 0 mm 1 mps 760 mmHg 93%
    06:00 +19°C° 0 mm 1 mps 761 mmHg 91%
    07:00 +19°C° 0 mm 1 mps 761 mmHg 88%
    08:00 +22°C° 0 mm 1 mps 761 mmHg 79%
    09:00 +24°C° 0 mm 1 mps 761 mmHg 69%
    10:00 +27°C° 0 mm 1 mps 761 mmHg 60%
    11:00 +28°C° 0 mm 1 mps 761 mmHg 55%
    12:00 +30°C° 0 mm 2 mps 760 mmHg 50%
    13:00 +31°C° 0 mm 2 mps 760 mmHg 46%
    14:00 +31°C° 0 mm 2 mps 760 mmHg 46%
    15:00 +31°C° 0 mm 3 mps 759 mmHg 47%
    16:00 +30°C° 0 mm 3 mps 759 mmHg 48%
    17:00 +29°C° 0 mm 3 mps 759 mmHg 56%
    18:00 +27°C° 0 mm 3 mps 759 mmHg 63%
    19:00 +25°C° 0 mm 2 mps 760 mmHg 71%
    20:00 +24°C° 0 mm 2 mps 760 mmHg 76%
    21:00 +23°C° 0 mm 2 mps 760 mmHg 81%
    22:00 +21°C° 0 mm 1 mps 760 mmHg 87%
    23:00 +21°C° 0 mm 1 mps 760 mmHg 88%

    29 November, Wednesday

    Time Temperature Precipitation Wind Pressure Humidity
    00:00 +20°C° 0 mm 1 mps 760 mmHg 90%
    01:00 +18°C° 0 mm 0 mps 760 mmHg 92%
    02:00 +20°C° 0 mm 1 mps 760 mmHg 91%
    03:00 +20°C° 0 mm 1 mps 760 mmHg 90%
    04:00 +20°C° 0 mm 1 mps 760 mmHg 89%
    05:00 +21°C° 0 mm 1 mps 760 mmHg 82%
    06:00 +23°C° 0 mm 1 mps 760 mmHg 75%
    07:00 +25°C° 0 mm 2 mps 761 mmHg 68%
    08:00 +27°C° 0 mm 2 mps 760 mmHg 60%
    09:00 +30°C° 0 mm 2 mps 760 mmHg 53%
    10:00 +33°C° 0 mm 3 mps 760 mmHg 46%
    11:00 +35°C° 0 mm 3 mps 759 mmHg 41%
    12:00 +36°C° 0 mm 3 mps 759 mmHg 37%
    13:00 +37°C° 0 mm 2 mps 758 mmHg 32%
    14:00 +37°C° 0 mm 2 mps 758 mmHg 34%
    15:00 +36°C° 0 mm 2 mps 758 mmHg 35%
    16:00 +36°C° 0 mm 2 mps 758 mmHg 36%
    17:00 +34°C° 0 mm 2 mps 758 mmHg 41%
    18:00 +31°C° 0 mm 2 mps 758 mmHg 47%
    19:00 +30°C° 0 mm 2 mps 758 mmHg 52%
    20:00 +29°C° 0 mm 2 mps 758 mmHg 54%
    21:00 +28°C° 0 mm 1 mps 758 mmHg 57%
    22:00 +26°C° 0 mm 1 mps 758 mmHg 59%
    23:00 +26°C° 0 mm 2 mps 758 mmHg 61%

    30 November, Thursday

    Time Temperature Precipitation Wind Pressure Humidity
    00:00 +25°C° 0 mm 2 mps 758 mmHg 62%
    01:00 +25°C° 0 mm 2 mps 758 mmHg 63%
    02:00 +25°C° 0 mm 2 mps 758 mmHg 63%
    03:00 +24°C° 0 mm 3 mps 758 mmHg 64%
    04:00 +24°C° 0 mm 3 mps 758 mmHg 64%
    05:00 +25°C° 0 mm 4 mps 758 mmHg 65%
    06:00 +26°C° 0 mm 4 mps 758 mmHg 65%
    07:00 +26°C° 0 mm 4 mps 759 mmHg 66%
    08:00 +28°C° 0 mm 4 mps 759 mmHg 61%
    09:00 +29°C° 0 mm 4 mps 759 mmHg 57%
    10:00 +32°C° 0 mm 4 mps 759 mmHg 53%
    11:00 +32°C° 0.1 mm 4 mps 758 mmHg 55%
    12:00 +30°C° 0.1 mm 4 mps 758 mmHg 57%
    13:00 +30°C° 0.1 mm 4 mps 757 mmHg 60%
    14:00 +30°C° 0.3 mm 4 mps 757 mmHg 62%
    15:00 +29°C° 0.3 mm 4 mps 757 mmHg 64%
    16:00 +29°C° 0.3 mm 4 mps 756 mmHg 66%
    17:00 +28°C° 0.8 mm 3 mps 756 mmHg 72%
    18:00 +26°C° 0.8 mm 2 mps 757 mmHg 78%
    19:00 +25°C° 0.8 mm 2 mps 757 mmHg 84%
    20:00 +24°C° 0.3 mm 2 mps 757 mmHg 87%
    21:00 +24°C° 0.3 mm 2 mps 757 mmHg 89%
    22:00 +23°C° 0.3 mm 2 mps 757 mmHg 91%
    23:00 +23°C° 0 mm 1 mps 756 mmHg 91%
    Show more